TimePST,TemperatureF,Dew PointF,Humidity,Sea Level PressureIn,VisibilityMPH,Wind Direction,Wind SpeedMPH,Gust SpeedMPH,PrecipitationIn,Events,Conditions,WindDirDegrees,DateUTC
12:56 AM,46.9,10.9,23,30.36,10.0,ESE,13.8,-,N/A,,Clear,110,2013-01-17 08:56:00
1:56 AM,46.9,10.9,23,30.35,10.0,ESE,13.8,23.0,N/A,,Clear,110,2013-01-17 09:56:00
2:56 AM,48.0,10.0,22,30.34,10.0,ESE,15.0,-,N/A,,Clear,110,2013-01-17 10:56:00
3:56 AM,48.0,9.0,21,30.33,10.0,East,11.5,-,N/A,,Clear,100,2013-01-17 11:56:00
4:56 AM,46.9,10.9,23,30.32,10.0,ESE,12.7,-,N/A,,Clear,110,2013-01-17 12:56:00
5:56 AM,46.0,10.0,23,30.31,10.0,ESE,11.5,-,N/A,,Clear,110,2013-01-17 13:56:00
6:56 AM,45.0,12.0,26,30.32,10.0,East,10.4,-,N/A,,Clear,100,2013-01-17 14:56:00
7:56 AM,46.9,12.0,24,30.32,10.0,ESE,15.0,-,N/A,,Clear,110,2013-01-17 15:56:00
8:56 AM,48.0,14.0,26,30.33,10.0,ESE,15.0,21.9,N/A,,Clear,110,2013-01-17 16:56:00
9:56 AM,48.9,14.0,25,30.33,10.0,ESE,15.0,-,N/A,,Clear,110,2013-01-17 17:56:00
10:56 AM,51.1,14.0,23,30.31,10.0,ESE,12.7,-,N/A,,Clear,110,2013-01-17 18:56:00
11:56 AM,52.0,14.0,22,30.28,10.0,ESE,11.5,-,N/A,,Clear,110,2013-01-17 19:56:00
12:56 PM,53.1,12.9,20,30.27,10.0,East,8.1,17.3,N/A,,Clear,100,2013-01-17 20:56:00
1:56 PM,53.1,15.1,22,30.25,10.0,ESE,11.5,-,N/A,,Clear,110,2013-01-17 21:56:00
2:56 PM,53.1,12.9,20,30.23,10.0,East,10.4,-,N/A,,Clear,100,2013-01-17 22:56:00
3:56 PM,54.0,12.0,19,30.23,10.0,East,9.2,-,N/A,,Clear,100,2013-01-17 23:56:00
4:56 PM,54.0,10.9,18,30.24,10.0,ESE,6.9,-,N/A,,Clear,110,2013-01-18 00:56:00
5:56 PM,51.1,12.0,21,30.25,10.0,ESE,10.4,-,N/A,,Clear,110,2013-01-18 01:56:00
6:56 PM,50.0,12.0,22,30.25,10.0,ESE,9.2,-,N/A,,Clear,110,2013-01-18 02:56:00
7:56 PM,50.0,10.0,20,30.25,10.0,ESE,6.9,-,N/A,,Clear,110,2013-01-18 03:56:00
8:56 PM,50.0,10.0,20,30.24,10.0,ESE,13.8,-,N/A,,Clear,110,2013-01-18 04:56:00
9:56 PM,48.9,10.0,21,30.24,10.0,East,10.4,20.7,N/A,,Clear,100,2013-01-18 05:56:00
10:56 PM,48.0,10.9,22,30.22,10.0,East,15.0,21.9,N/A,,Clear,100,2013-01-18 06:56:00
11:56 PM,46.9,12.0,24,30.23,10.0,East,11.5,-,N/A,,Clear,100,2013-01-18 07:56:00